Theta_e
328 329 329 329 330 330 330 330 330 330 330 330 330 330 331 331 332 332 332 332 331 331 331 330 329 329 330 330 329 327 326 324 320 318 316 324 329 332 332 331 330 336 332 316 313 310 304 305 306 308 307 312 312 309 317 314 314 314 303 300 297 298 296 299 298 298 302 300 300 302 303 302 299 302 304 306 304 304 303 303 306 314 316 326 328 330 331 331
328 328 329 329 329 329 330 329 330 330 330 330 330 330 331 332 332 332 331 331 331 331 330 331 330 330 331 330 329 328 326 324 320 319 318 329 333 329 331 332 330 335 328 315 310 305 303 304 306 306 305 304 320 308 313 312 313 305 301 300 296 299 300 302 301 300 299 300 302 303 302 302 301 302 302 300 300 300 300 301 304 309 311 318 328 328 329 329
328 328 328 328 329 329 329 329 329 329 329 329 329 330 330 331 331 331 330 330 330 330 330 330 330 330 331 330 328 328 325 320 319 316 322 333 333 331 331 332 332 335 318 310 308 307 304 304 306 304 305 301 307 304 312 308 308 303 303 298 297 303 301 302 302 301 302 303 302 301 301 302 303 302 303 300 298 299 298 297 300 304 308 314 325 327 327 328
327 327 328 328 329 329 329 329 329 329 329 329 329 329 330 329 330 330 330 329 330 330 330 330 330 330 329 328 327 326 324 317 312 318 326 334 335 334 332 333 332 335 322 314 311 308 307 307 306 304 302 300 304 305 304 308 305 304 301 299 301 301 300 301 302 302 302 303 302 302 301 301 301 302 301 299 297 298 299 301 301 301 310 313 324 326 326 327
326 327 327 328 328 329 329 329 328 329 329 328 329 329 329 329 329 329 329 329 329 329 329 329 329 329 328 327 326 326 317 308 310 321 327 334 334 335 335 335 333 329 320 313 310 307 306 305 305 303 304 297 302 304 302 305 306 305 301 303 301 301 299 301 301 300 301 302 303 301 300 300 303 302 300 299 296 295 299 302 303 304 313 314 320 325 325 325
325 326 327 327 328 328 328 328 328 328 329 329 329 329 328 328 328 328 328 328 329 329 329 329 329 329 328 326 324 322 313 296 312 316 328 332 334 335 335 334 334 324 316 312 307 306 305 304 303 300 298 298 299 299 300 303 306 298 301 301 301 301 299 302 301 299 300 303 301 300 301 302 301 300 301 299 299 301 304 303 306 310 311 316 321 324 323 324
325 325 326 327 327 328 328 328 328 328 328 329 329 328 328 328 328 327 327 328 328 328 328 328 328 328 327 325 322 317 309 312 310 327 331 332 332 333 333 333 334 318 313 308 306 305 305 303 301 298 298 298 299 300 301 302 304 301 298 300 300 301 300 300 298 299 300 302 301 303 302 300 299 297 300 299 302 302 302 303 305 314 316 317 319 321 321 324
324 325 324 324 325 326 327 327 327 327 327 327 328 328 328 328 327 327 327 327 327 327 328 328 328 327 325 320 313 308 308 307 320 328 334 332 330 329 330 327 323 315 309 307 305 303 304 301 299 300 297 296 300 300 303 301 302 299 297 302 300 300 300 299 298 298 300 299 299 301 300 299 300 299 301 299 301 302 304 306 305 312 316 320 320 320 320 324
324 324 324 324 324 325 325 327 327 327 327 327 327 327 327 327 327 327 326 327 327 327 327 328 327 326 324 317 308 302 303 315 322 334 335 327 326 327 324 318 315 309 307 307 307 305 304 302 301 300 296 297 300 298 300 299 296 300 301 300 300 300 300 299 299 300 299 300 300 298 300 299 298 301 298 300 302 304 306 306 306 308 312 316 317 320 321 323
324 324 324 323 324 324 325 325 325 326 326 326 326 327 327 327 326 326 326 326 326 326 327 327 327 326 320 310 306 300 314 322 329 332 331 327 323 322 319 316 311 308 306 306 306 305 303 303 301 303 305 299 302 297 302 299 297 301 300 300 299 299 299 301 300 299 301 301 299 298 298 298 299 299 295 301 302 304 305 306 306 307 306 308 314 316 318 321
324 324 323 323 323 324 325 325 325 326 326 325 325 326 325 326 325 326 326 325 326 326 326 326 326 324 316 311 302 300 317 322 328 330 325 322 319 316 314 311 310 307 306 306 305 306 305 305 306 306 304 298 300 298 300 299 301 301 300 299 299 300 299 300 299 298 299 298 299 300 298 298 299 301 296 302 302 303 302 302 305 304 304 306 309 313 315 317
324 324 324 323 323 324 325 324 324 325 325 325 325 325 325 325 325 325 325 325 325 325 325 326 325 321 316 310 303 304 312 316 325 324 321 321 317 316 313 311 310 308 306 304 305 308 307 310 311 302 296 302 295 299 298 299 301 300 300 295 297 298 297 299 298 299 300 298 299 301 298 295 296 295 300 300 302 302 301 301 302 303 303 306 307 310 312 314
324 324 323 323 323 323 324 324 324 324 324 324 324 324 324 324 324 325 325 324 324 324 325 325 324 320 312 302 308 313 316 316 320 319 316 316 314 314 314 311 310 311 309 307 306 309 312 310 310 302 303 301 298 293 301 303 300 301 299 297 295 295 294 298 300 299 299 299 299 299 287 291 295 299 300 300 300 300 300 299 300 302 302 302 304 307 311 314
323 323 323 322 322 322 323 324 324 324 324 324 324 324 323 323 324 324 324 323 324 324 324 325 323 318 313 302 311 314 315 316 317 314 313 313 311 313 312 314 314 312 318 310 311 312 315 308 313 304 306 302 298 303 300 300 301 294 297 298 293 291 290 298 298 297 297 299 299 300 289 290 296 299 300 300 301 300 298 298 298 301 302 301 302 305 310 313
322 322 322 322 321 321 322 323 323 324 323 323 322 322 323 322 323 323 323 322 322 323 323 324 321 315 306 306 312 314 323 315 311 312 313 311 309 308 309 310 309 312 311 312 314 313 310 315 312 303 297 305 303 299 294 294 296 295 291 288 294 291 295 296 300 297 295 297 299 297 290 290 295 297 299 300 299 299 297 297 298 300 301 302 302 306 309 312
322 322 322 321 321 321 321 321 322 323 323 322 321 321 321 322 322 322 322 321 322 322 322 315 315 315 303 299 305 322 314 307 307 312 313 314 310 307 309 309 310 309 309 306 307 311 307 311 301 298 299 301 298 294 292 292 292 293 290 290 289 291 292 294 295 298 299 297 298 295 289 292 294 297 298 300 300 298 297 297 298 300 301 301 302 304 306 307
322 321 321 321 321 321 321 321 321 321 322 320 320 320 320 321 321 321 321 321 321 321 317 310 313 314 299 306 312 307 305 313 313 314 313 315 314 310 309 307 306 306 308 306 311 310 308 303 304 300 303 295 295 295 288 287 287 288 292 289 292 290 291 289 295 297 299 296 292 294 291 292 295 295 296 298 298 298 296 297 298 299 298 300 300 302 304 304
321 321 321 320 321 321 320 320 320 320 320 319 318 318 318 320 321 321 319 319 319 317 315 317 312 305 299 303 301 302 310 308 313 311 313 311 312 310 308 305 306 304 304 302 310 301 304 298 299 294 296 295 295 292 287 283 288 287 288 287 290 291 292 291 290 294 297 296 294 292 291 293 295 297 297 298 298 298 297 297 297 297 298 298 299 299 300 301
321 320 320 320 320 320 320 320 320 319 319 318 319 320 320 320 319 317 313 312 309 304 300 300 300 291 292 298 306 306 310 311 312 311 307 309 316 311 310 309 306 302 299 298 297 300 300 301 301 295 290 291 292 292 290 294 293 292 292 290 291 289 290 290 294 296 297 292 291 292 292 293 295 296 297 298 298 298 297 297 297 297 297 298 299 299 299 300
320 320 320 320 320 320 320 320 319 319 318 316 315 314 312 306 305 303 309 309 304 302 302 302 302 304 300 302 303 310 313 313 305 309 309 314 310 308 306 305 304 302 298 294 296 297 301 292 289 289 292 293 294 295 295 295 296 294 293 291 290 291 293 294 294 296 297 294 291 292 293 293 294 294 296 298 297 296 296 296 297 298 298 299 298 299 300 301
319 320 320 320 319 319 319 319 319 318 319 315 313 308 299 300 295 294 301 304 307 304 302 302 303 301 300 305 306 307 303 304 307 306 308 312 309 306 301 302 298 295 296 298 296 301 298 292 291 293 295 295 295 296 296 295 295 293 294 291 290 292 289 294 293 294 296 293 290 292 292 292 294 295 296 297 297 296 297 297 297 298 299 299 300 300 300 301
319 319 319 319 319 319 319 319 319 318 317 315 311 305 306 306 307 309 305 296 303 305 306 303 304 303 308 309 309 308 306 301 303 306 313 310 305 300 300 300 296 293 297 297 297 294 291 290 294 295 297 297 296 296 296 296 295 296 292 292 291 292 292 294 293 295 295 293 289 291 290 292 294 295 296 297 298 298 299 299 299 299 299 300 301 301 301 301
319 319 319 319 318 319 318 319 318 318 314 310 308 308 307 311 311 311 305 300 297 305 304 301 300 303 304 308 311 309 300 298 298 304 306 309 302 301 300 297 295 296 296 297 292 291 288 291 296 296 297 296 295 294 294 296 297 292 292 289 287 293 288 288 292 294 294 291 292 290 289 292 295 296 296 298 298 299 299 300 300 300 299 300 300 301 302 302
318 318 318 318 318 318 319 318 318 315 311 310 309 309 312 312 310 306 302 294 292 297 303 302 302 303 303 302 308 306 299 299 302 301 309 306 300 303 300 298 295 296 294 296 295 292 290 294 294 296 297 296 293 294 293 291 289 294 296 293 291 292 292 292 290 292 293 294 294 290 289 289 292 292 293 296 299 298 299 299 300 300 301 301 302 303 303 302
318 317 318 318 318 318 317 317 311 309 312 310 309 313 314 315 313 311 300 294 294 297 305 303 310 307 306 313 311 303 301 302 303 306 307 307 301 300 298 301 297 293 294 296 295 293 294 293 297 294 295 294 295 291 293 293 288 291 296 297 295 296 292 292 292 290 289 288 292 292 283 281 289 291 293 294 294 296 298 297 298 299 301 302 302 303 304 308
317 317 317 317 318 317 318 309 308 311 309 306 309 313 315 313 311 306 299 289 284 294 300 292 310 299 314 303 308 308 301 296 305 306 307 308 309 302 299 297 297 292 295 295 294 295 292 292 295 296 294 295 295 293 295 295 289 288 291 298 296 295 294 293 292 292 283 281 291 292 282 279 289 291 292 293 294 294 296 296 297 298 299 300 301 302 302 303
317 317 317 317 317 317 309 302 311 310 303 306 312 314 313 312 314 305 295 286 282 293 291 302 302 301 312 304 304 304 289 293 306 308 305 311 304 309 297 294 296 298 298 297 293 288 291 292 294 296 295 294 292 289 296 295 291 287 295 299 297 296 294 294 294 291 288 291 292 292 291 282 282 289 294 294 292 293 293 295 297 297 297 298 300 301 300 301
317 317 317 317 317 315 309 311 308 305 305 309 314 314 312 312 311 303 295 277 277 295 291 293 302 311 309 304 307 298 299 303 297 301 306 307 305 301 300 295 295 295 296 294 284 294 293 290 294 294 295 291 291 296 297 297 293 292 294 298 295 296 296 295 293 288 289 284 282 287 291 282 280 287 293 292 291 291 292 293 296 298 298 297 299 300 300 301
317 317 317 317 316 315 314 310 308 305 310 314 313 313 313 311 308 296 286 276 292 291 308 292 311 307 304 304 300 299 299 302 296 300 306 306 306 300 294 297 297 296 297 294 289 291 295 294 296 297 294 291 294 291 294 298 291 293 297 299 298 298 297 295 289 288 287 283 279 284 289 280 281 288 290 291 289 290 292 294 294 296 297 298 299 299 301 302
317 317 317 317 315 312 310 311 308 310 314 315 313 313 312 307 298 288 281 274 294 286 296 296 297 295 300 295 296 299 297 298 300 300 302 299 301 303 299 303 298 295 294 297 294 294 295 296 295 297 294 296 292 293 295 296 296 297 297 295 293 292 290 288 288 285 284 279 280 290 291 286 279 286 288 288 291 291 292 293 295 298 298 300 300 300 300 300
316 317 316 316 309 310 309 304 308 312 313 313 312 309 305 300 289 282 275 287 295 293 296 292 293 300 295 293 291 297 298 298 297 299 295 300 296 299 298 296 300 295 291 291 290 294 294 295 296 294 296 295 296 293 296 298 297 298 293 290 289 287 287 285 283 283 278 276 283 282 288 289 277 281 292 292 293 293 292 293 294 296 299 299 299 298 298 298
316 316 317 313 312 312 304 303 309 313 313 312 307 301 296 285 289 281 279 296 285 288 289 288 294 295 294 295 293 293 293 296 297 296 294 294 293 292 294 289 293 284 284 285 285 291 288 291 294 295 296 296 295 291 292 295 296 294 291 289 283 281 281 277 281 276 276 276 281 282 284 282 283 287 290 291 293 293 292 295 296 297 298 299 299 300 299 299
315 315 315 313 312 309 311 311 313 312 312 310 302 298 290 284 276 286 286 288 285 291 289 295 292 294 294 293 291 294 298 292 297 295 297 295 293 293 296 295 296 291 283 287 286 286 289 293 294 295 295 295 297 288 285 284 289 291 288 283 281 278 276 273 276 279 280 280 281 282 284 280 284 287 293 294 296 294 294 296 295 295 296 297 300 300 300 301
315 315 311 311 311 312 313 312 312 311 309 306 298 293 288 281 280 293 288 288 290 295 294 292 293 294 294 289 292 295 291 296 295 294 295 292 293 289 292 295 296 293 292 288 285 285 282 281 287 290 286 295 295 293 291 289 289 291 295 290 283 283 278 273 277 275 276 278 280 282 280 278 279 284 291 293 293 292 294 294 296 297 297 297 298 298 299 300
315 313 312 311 311 312 312 312 311 311 307 303 294 290 282 281 286 285 286 289 291 293 291 295 292 291 290 292 294 296 295 290 296 294 292 291 289 290 290 292 295 296 293 286 287 284 286 284 290 295 293 294 293 296 298 293 291 290 292 293 287 283 286 280 282 282 278 277 278 278 278 282 286 292 293 295 293 294 293 295 294 295 296 296 298 298 299 300
312 310 311 307 308 311 312 312 311 310 304 297 290 285 283 286 283 290 288 295 293 291 291 293 292 288 287 288 294 293 298 293 294 293 291 292 292 291 294 294 294 296 291 287 287 281 285 281 290 295 295 292 293 294 296 297 284 288 289 283 287 291 286 281 280 282 280 279 276 281 281 285 290 291 293 293 293 293 292 293 293 293 295 296 297 298 301 301
308 309 305 307 309 311 312 311 311 308 303 295 289 284 289 291 299 293 297 293 293 295 291 285 286 287 285 286 289 291 293 296 293 292 287 293 290 293 293 294 298 296 296 293 286 292 284 284 289 291 289 292 294 292 297 292 295 289 282 288 292 293 292 285 279 280 279 275 277 281 278 279 283 280 290 292 291 291 290 291 292 294 295 296 297 299 301 301
307 306 306 306 310 312 312 311 309 307 300 292 287 290 294 292 298 298 297 296 295 295 290 288 288 291 286 287 287 290 294 290 290 291 288 292 288 297 294 293 297 297 297 299 289 289 291 280 285 289 290 292 295 296 293 295 295 291 289 296 289 281 281 283 282 275 275 274 276 279 279 279 281 284 288 288 288 290 291 291 291 294 295 294 297 301 299 298
306 304 298 305 312 312 311 311 308 302 295 288 287 288 294 299 300 296 298 298 297 294 289 291 288 290 291 288 290 292 292 287 292 290 287 289 285 295 295 296 294 298 297 296 290 293 291 283 282 288 290 291 293 291 284 285 294 296 294 289 292 286 284 280 281 281 281 275 276 276 278 276 286 285 289 290 290 291 291 292 291 291 293 294 298 299 298 299
302 299 297 308 311 312 311 309 303 298 292 286 288 289 296 295 298 299 298 297 294 293 291 291 292 289 291 291 292 289 292 291 291 290 290 291 290 297 295 298 295 296 297 299 295 296 285 288 279 285 291 292 283 286 286 288 285 284 286 285 287 287 288 285 285 282 279 277 275 275 274 279 287 291 289 291 291 292 293 294 295 295 297 298 300 301 300 300
305 299 298 309 311 312 309 304 296 291 289 291 292 289 296 295 297 299 302 303 297 299 293 293 292 289 291 290 290 293 289 291 292 289 290 290 291 284 294 297 298 295 296 295 292 293 284 283 282 283 284 283 286 289 290 292 291 289 288 286 288 285 282 280 279 285 282 281 276 276 274 280 291 291 292 291 291 293 295 295 296 295 295 297 298 299 300 298
301 292 296 309 310 310 302 294 293 295 291 288 288 293 293 299 296 297 299 300 299 295 300 297 295 294 292 292 292 292 290 289 291 289 290 289 293 293 295 300 298 298 294 289 290 294 291 287 284 281 284 286 290 291 290 291 289 293 290 288 290 288 286 282 278 281 282 281 280 279 276 278 290 291 291 291 291 292 294 294 295 295 295 298 299 298 298 298
299 294 305 308 310 306 298 291 293 292 289 293 298 297 297 297 296 298 295 298 295 299 297 295 294 293 294 294 293 292 291 288 291 290 291 292 293 295 298 297 299 297 296 291 294 292 293 286 284 284 285 289 290 291 290 290 292 291 289 289 289 287 288 286 283 282 281 280 279 280 275 278 290 292 290 291 291 291 292 292 294 294 295 297 298 299 299 298
298 296 299 308 309 308 294 286 286 288 291 296 296 296 300 298 296 294 294 296 295 295 294 296 296 298 294 296 294 291 292 284 291 291 289 292 291 297 298 298 298 294 294 292 291 295 286 286 286 281 280 282 283 288 288 290 290 285 286 289 291 291 289 284 283 285 282 282 281 279 274 281 288 291 292 290 291 291 292 292 293 294 297 298 298 299 299 299
299 300 300 302 306 304 292 293 290 289 291 292 293 291 294 296 299 297 296 294 298 295 295 294 297 297 295 297 294 294 293 291 284 293 294 292 293 296 299 299 298 295 298 299 296 297 287 286 286 279 276 274 274 275 279 283 284 285 286 288 290 292 288 285 282 282 279 281 282 279 279 287 289 289 290 290 290 291 291 292 293 294 297 298 299 299 299 299
295 287 294 296 300 298 298 297 296 292 291 291 290 292 293 292 295 297 299 298 301 298 297 297 297 297 294 294 292 291 291 293 290 286 290 288 286 290 295 297 297 296 296 297 296 294 285 286 288 286 283 281 283 283 287 288 285 284 286 287 288 291 290 289 286 283 282 283 282 283 286 287 286 287 287 288 288 289 290 291 292 292 292 296 297 298 298 298
297 290 289 286 295 296 294 297 294 295 290 294 287 292 289 291 293 294 299 293 297 297 297 296 295 292 291 293 291 291 292 290 291 290 289 289 288 289 294 295 294 292 295 294 295 291 285 284 287 288 287 287 288 288 289 290 286 287 286 286 288 288 288 287 285 284 289 284 281 286 288 285 287 287 287 288 289 289 289 290 291 291 292 294 297 297 298 298
288 289 294 296 289 286 288 290 294 294 295 294 291 293 290 290 290 288 294 297 297 298 292 295 294 293 293 292 292 287 289 289 288 286 290 287 286 289 288 293 293 294 293 293 295 290 284 284 287 287 287 289 289 292 291 290 289 288 288 288 287 288 287 285 286 288 287 284 283 288 289 287 289 290 289 290 291 291 291 292 294 294 294 295 296 296 297 297
291 290 291 295 290 292 292 293 294 294 293 293 291 292 290 290 288 291 291 293 295 293 294 286 291 292 293 294 292 288 290 285 284 288 286 285 284 284 282 285 290 293 292 291 292 291 286 282 285 288 286 287 288 290 291 290 288 288 288 289 289 289 288 288 288 290 289 286 289 289 289 289 291 291 291 292 292 293 292 292 293 294 295 295 296 296 297 297
286 288 286 292 294 293 293 293 293 293 290 292 288 290 291 290 288 292 294 293 288 291 297 291 291 293 294 294 292 289 291 291 290 286 288 288 285 285 284 286 284 287 289 288 291 290 289 283 290 285 283 283 287 288 289 289 288 286 287 288 289 289 289 289 289 289 289 289 290 290 288 288 293 293 293 293 293 292 293 293 295 296 296 295 296 296 296 297
291 291 293 290 288 291 293 293 292 291 289 290 288 291 292 292 290 293 292 296 292 290 293 291 293 293 295 294 293 291 295 294 293 293 292 291 287 290 288 286 291 286 286 288 287 289 289 282 286 284 281 280 283 285 286 286 285 284 284 287 288 288 286 288 287 290 287 286 287 287 286 287 293 294 295 294 292 292 293 294 294 295 295 295 295 296 296 297
294 295 294 294 287 292 290 293 293 292 287 290 290 291 291 292 294 294 290 296 297 297 296 296 295 293 292 292 291 293 296 296 297 296 295 295 294 294 295 294 292 290 287 288 288 287 286 284 283 283 281 279 281 285 282 281 281 279 282 288 291 291 291 291 291 291 290 291 286 284 286 292 293 293 292 292 292 292 292 292 292 295 295 296 296 296 297 297
Wind_Speed
25 25 26 25 25 25 24 23 22 21 20 20 22 21 20 20 20 20 19 19 14 16 15 16 16 15 13 15 16 16 14 7 6 7 8 6 5 10 12 11 10 4 1 2 6 7 5 3 3 3 3 0 2 2 2 1 2 0 1 2 3 3 5 4 4 4 5 6 5 6 7 6 5 2 1 0 1 1 3 3 4 9 8 5 5 9 12 13
30 28 27 26 25 24 24 23 22 21 22 21 20 22 22 20 20 19 19 19 15 17 16 15 16 15 13 12 13 14 8 3 6 7 14 6 12 3 5 11 14 3 3 3 7 5 5 5 4 3 2 2 1 1 3 1 2 2 2 1 3 3 3 2 4 5 4 6 8 5 5 5 6 7 3 2 3 3 3 3 5 7 5 3 5 10 10 11
29 29 26 26 25 25 24 23 22 22 21 20 20 21 21 20 20 19 19 19 16 17 17 16 16 14 13 12 12 12 8 3 3 14 13 14 6 8 9 16 16 4 4 6 5 6 6 6 6 7 2 4 3 3 1 2 3 4 2 2 5 2 2 6 6 4 6 11 9 6 5 2 6 5 3 3 5 5 5 5 5 7 7 7 7 8 10 10
28 26 26 26 26 25 24 24 23 22 22 20 20 20 20 20 20 19 19 18 17 17 17 16 16 16 15 14 15 9 6 2 10 4 11 16 16 13 14 20 11 7 4 5 9 9 5 5 4 4 3 5 3 4 3 2 1 3 3 3 2 3 3 4 7 4 4 5 7 6 4 2 6 3 4 4 3 6 5 6 9 8 12 11 10 10 9 10
27 27 26 25 25 25 25 24 23 23 21 20 20 20 19 19 19 18 17 18 17 18 17 16 17 17 16 15 14 9 9 3 5 13 15 13 13 15 19 24 12 6 7 5 6 5 5 4 3 3 2 3 4 2 3 3 3 3 5 1 3 6 4 4 6 6 3 2 7 6 7 3 4 5 4 4 4 3 4 7 10 9 14 14 12 11 9 9
29 27 28 26 26 25 24 24 23 22 22 20 20 20 20 19 19 18 19 17 17 18 16 16 16 17 18 17 12 8 8 6 2 6 14 20 18 18 22 21 13 9 5 7 3 3 3 3 3 2 2 2 3 5 2 5 4 3 4 0 4 4 2 1 2 4 4 3 6 5 4 5 4 3 4 4 5 1 2 5 6 2 14 15 14 13 10 10
32 26 27 27 27 26 25 24 23 23 22 22 20 20 20 20 19 17 18 18 17 17 17 18 17 18 19 16 8 8 10 7 3 1 3 19 21 22 21 15 12 8 8 4 3 3 3 5 5 4 3 4 8 6 6 3 3 3 2 2 3 5 4 5 2 4 4 4 3 0 5 4 4 3 4 5 1 6 5 5 4 9 14 12 13 12 13 13
30 27 25 25 28 26 25 25 24 23 24 23 21 19 19 20 18 18 17 18 17 17 17 18 17 18 21 12 9 7 8 12 2 1 3 6 18 23 21 9 12 8 9 8 5 6 5 7 6 4 5 5 0 4 1 5 5 5 5 1 1 4 2 3 2 3 3 4 2 4 3 3 2 0 0 5 3 5 4 4 4 7 13 11 11 11 11 11
27 29 28 28 27 25 25 25 25 24 24 23 20 19 19 18 19 18 17 17 17 17 17 17 19 18 16 10 10 9 14 5 4 5 6 9 10 10 13 9 9 11 6 4 6 6 5 7 7 5 3 6 6 4 2 3 4 6 2 3 2 3 3 3 3 2 1 2 1 3 1 5 3 1 2 4 5 6 6 6 5 5 7 10 10 11 11 10
28 26 28 27 26 26 25 25 25 24 23 23 20 19 19 19 18 18 17 18 17 16 16 17 16 19 11 8 8 11 3 10 7 8 7 10 14 13 12 8 13 11 8 7 5 7 8 5 7 6 4 5 1 3 0 4 1 2 5 3 3 3 3 1 1 2 0 1 1 2 3 2 3 4 4 6 4 10 7 7 5 7 5 5 8 8 9 11
29 28 26 26 27 26 25 24 25 24 23 21 21 20 20 19 18 18 17 17 17 16 15 16 16 15 8 10 13 11 1 4 5 6 9 10 14 14 14 10 12 10 10 8 9 10 8 11 4 1 2 2 0 2 1 1 2 2 5 6 4 1 3 1 3 3 2 1 1 1 1 4 2 0 5 1 5 9 8 6 6 5 6 5 6 8 7 9
29 29 28 28 27 26 25 25 24 24 23 21 20 20 18 19 18 18 18 17 17 18 17 15 18 8 4 7 10 6 2 3 6 7 8 10 10 12 11 11 12 9 12 9 10 6 5 3 3 3 3 2 4 2 3 2 1 3 4 3 3 3 2 2 3 3 1 0 2 1 1 0 2 4 11 5 3 4 6 6 7 6 5 7 6 6 6 7
30 29 30 30 27 27 25 25 24 23 22 22 20 19 18 18 19 18 17 17 17 17 16 16 13 6 6 7 6 2 2 6 7 9 8 4 5 4 3 5 6 3 7 9 6 5 4 2 2 4 3 1 2 3 1 1 2 2 3 2 3 3 2 4 3 4 1 1 2 1 1 5 10 16 8 6 6 4 4 5 6 6 5 5 6 6 6 5
31 32 29 28 28 26 26 25 24 23 23 22 21 21 19 17 18 18 18 15 18 16 15 17 7 6 4 8 4 2 3 3 8 9 9 8 11 4 3 3 3 4 2 3 2 1 2 1 1 3 5 1 2 1 1 1 1 2 3 2 2 5 3 6 3 4 2 1 2 0 2 3 4 8 6 5 6 7 5 5 5 5 5 5 5 6 7 7
26 32 31 27 26 27 26 25 25 24 24 22 23 22 19 18 17 18 17 14 16 16 15 13 5 5 3 4 4 2 0 5 8 6 8 12 11 7 5 6 6 3 2 4 2 0 0 2 1 1 2 1 3 2 3 2 1 2 4 3 2 6 0 3 1 8 4 1 4 2 3 6 2 3 3 3 4 5 5 5 5 5 5 5 5 5 6 6
30 25 31 30 28 27 26 26 25 25 24 22 22 21 19 17 16 16 14 12 16 16 10 11 8 6 4 7 3 4 2 6 8 7 5 5 10 7 7 6 5 4 3 2 3 1 1 2 3 2 1 0 3 3 4 3 3 3 5 2 4 4 3 2 3 2 3 4 1 5 3 3 1 1 3 1 1 2 4 5 6 6 6 6 6 5 5 5
31 30 26 29 28 27 27 26 26 25 25 23 22 20 20 18 17 15 13 16 10 6 7 7 8 6 3 2 3 7 7 3 5 4 3 1 3 9 11 8 4 6 3 3 2 2 2 4 1 1 2 3 4 5 4 4 3 4 3 2 4 7 4 2 1 2 2 3 4 4 3 5 1 4 4 4 5 5 5 5 5 6 5 6 5 6 7 7
28 32 31 29 28 28 26 26 26 26 25 26 23 22 19 19 18 17 15 9 7 5 6 1 6 3 7 4 9 11 7 6 4 7 4 2 1 12 7 5 6 8 6 4 2 5 3 3 3 4 2 4 6 7 6 6 6 4 4 3 2 3 5 4 5 6 5 3 2 5 5 9 8 4 4 6 5 6 6 7 6 5 5 5 5 5 6 6
31 28 30 29 29 29 28 27 28 29 27 28 28 26 23 21 11 7 8 10 11 7 5 8 13 12 7 14 7 10 8 9 9 9 4 4 1 6 4 5 10 12 6 6 3 5 3 1 2 3 7 7 9 9 5 3 7 7 9 7 4 5 5 2 1 1 7 4 3 5 8 11 10 7 5 5 7 8 8 6 6 6 5 5 5 5 5 6
32 31 30 30 29 29 29 28 28 29 31 24 20 16 12 12 7 7 8 11 11 15 1 22 16 2 6 16 9 9 12 10 8 4 7 2 6 7 5 7 6 6 9 7 6 7 5 5 7 9 6 7 7 8 7 5 1 7 8 7 6 5 1 3 3 2 0 1 7 8 7 6 6 6 6 9 7 6 5 7 7 5 5 5 5 6 7 7
28 30 30 30 30 29 30 29 30 30 26 20 22 18 16 18 20 13 18 13 10 11 1 19 17 7 2 11 14 18 12 4 5 6 7 4 4 11 8 8 8 7 6 7 9 2 7 6 8 8 7 9 9 8 2 2 4 3 3 8 6 6 2 1 2 2 2 1 4 7 7 8 8 7 6 4 9 9 9 8 8 8 7 6 7 7 7 7
31 30 30 31 31 31 32 29 30 28 27 17 16 9 6 20 2 6 19 9 12 7 3 11 15 4 4 7 9 13 10 10 10 9 3 7 8 9 6 6 11 8 8 7 6 4 7 9 6 9 8 6 7 8 1 1 1 1 2 3 1 2 4 2 3 1 1 2 5 2 4 7 7 6 5 7 9 6 9 11 10 9 8 8 8 8 8 6
32 31 30 31 31 31 28 30 30 29 16 16 12 9 11 6 2 19 6 11 5 1 2 15 18 6 7 6 2 3 15 14 13 10 8 5 12 7 11 9 10 7 10 10 9 6 4 5 7 7 6 3 6 5 4 1 1 1 1 1 2 2 5 1 1 2 1 1 1 3 4 7 6 6 8 8 9 9 7 9 9 10 11 11 10 9 9 8
32 31 31 31 31 31 31 28 28 20 15 14 14 11 3 3 10 16 13 8 11 6 1 15 10 6 8 9 5 4 13 7 11 13 9 8 12 7 9 8 13 8 9 10 10 10 7 2 1 1 4 6 4 4 4 3 2 2 1 1 1 2 1 2 3 2 1 2 1 2 5 7 6 8 10 10 12 9 7 8 8 8 9 9 7 7 8 10
32 32 31 31 31 32 31 31 17 12 9 8 12 12 3 1 1 2 14 9 3 1 2 4 2 4 5 3 5 4 8 5 4 8 9 8 12 8 10 6 7 9 11 11 9 7 4 2 1 3 5 5 5 5 6 6 5 3 3 2 2 1 8 5 5 5 1 2 3 3 1 4 6 13 13 7 6 10 9 8 9 9 7 6 7 7 5 5
33 32 32 32 32 32 35 18 13 12 12 13 12 13 5 1 2 4 5 6 8 3 1 8 1 5 3 6 5 3 9 6 3 9 10 4 3 5 5 8 3 10 12 11 8 2 2 0 0 5 5 4 4 3 4 4 5 3 3 3 2 6 7 6 5 1 1 1 1 1 5 5 6 4 4 6 4 8 3 6 7 6 6 6 8 7 7 7
33 32 33 34 34 36 20 10 15 16 18 12 13 5 3 2 2 4 5 2 6 4 9 1 2 1 0 7 8 5 11 8 0 3 12 1 7 1 9 3 2 1 6 3 1 4 2 2 2 2 5 5 4 4 4 7 3 2 1 1 4 5 6 5 4 2 0 1 1 0 1 1 5 8 6 1 5 4 5 6 8 8 7 8 9 9 7 7
33 34 33 35 35 30 4 14 20 19 18 10 11 7 4 4 3 2 1 7 4 9 6 3 2 2 1 10 7 6 2 16 7 5 2 2 1 0 1 9 8 6 8 7 9 1 2 4 3 5 3 4 7 2 4 6 3 2 0 2 3 3 4 4 2 2 1 3 2 1 2 1 4 5 5 3 2 4 7 8 8 9 9 9 7 6 6 4
33 34 34 32 33 17 9 12 19 19 8 3 10 6 5 6 1 3 3 5 2 4 3 9 3 4 4 12 9 5 4 10 8 5 3 3 2 1 3 8 5 5 3 4 6 1 2 3 5 6 7 6 2 0 2 6 5 2 1 2 4 4 3 2 2 1 0 1 5 3 4 3 7 3 3 1 4 6 7 9 6 4 6 5 6 5 4 3
34 33 33 33 23 10 9 10 11 11 4 3 8 8 6 3 2 5 6 6 6 4 6 4 5 11 12 16 12 8 9 1 4 5 4 4 4 1 1 2 8 7 3 7 8 2 1 1 3 2 4 1 4 2 1 3 4 5 3 6 4 3 2 2 1 1 1 1 4 2 7 2 4 4 6 6 5 6 7 2 2 3 5 4 5 5 4 4
33 33 32 33 17 11 14 12 15 13 7 5 9 9 6 2 6 6 10 2 6 3 3 7 9 12 14 17 13 10 5 5 7 14 10 5 3 3 3 5 4 5 4 4 5 2 1 1 1 1 1 3 3 4 5 1 5 5 2 3 6 5 2 1 1 2 1 3 0 4 1 0 6 4 2 1 0 0 1 1 4 4 3 4 4 4 4 4
31 32 34 21 10 10 13 16 20 9 6 7 12 10 8 9 1 9 4 6 8 6 8 11 13 13 17 16 9 12 8 8 8 14 15 10 9 9 11 8 9 6 3 5 2 2 3 2 2 3 4 2 3 8 4 3 0 1 4 7 7 2 2 0 1 1 3 5 1 1 2 2 9 8 5 4 3 2 3 1 5 5 5 5 5 4 4 3
31 31 30 10 15 8 5 8 10 8 8 8 8 9 10 8 12 9 5 11 2 15 7 10 16 18 14 14 10 11 7 9 11 10 11 7 8 6 7 7 10 9 10 5 4 2 1 2 2 1 2 3 2 10 3 2 2 2 7 7 5 3 2 2 2 2 1 1 3 0 1 2 4 6 11 14 14 3 3 3 3 5 5 4 4 3 1 2
31 32 15 11 10 6 6 11 10 12 11 8 7 10 4 10 10 7 7 7 3 5 14 12 15 13 15 12 10 11 8 5 13 11 13 10 10 10 10 8 13 7 3 10 11 12 7 2 6 8 2 4 2 3 10 7 8 6 2 6 4 4 4 4 4 5 5 2 1 3 2 6 2 4 1 5 4 5 2 2 1 1 2 2 1 1 2 3
32 19 10 10 5 4 9 11 13 14 11 10 8 10 13 13 8 15 9 7 4 9 14 14 17 16 14 6 7 9 4 5 9 11 10 13 13 12 15 12 11 6 5 11 3 3 11 2 2 3 2 2 7 0 0 7 4 2 1 3 1 4 1 4 1 1 3 1 1 1 5 3 5 1 3 2 2 2 2 0 0 2 3 2 1 3 3 3
24 9 11 9 8 5 6 9 13 13 11 10 11 9 13 11 7 10 6 5 7 9 15 16 12 14 12 6 7 11 5 5 13 8 8 11 9 10 9 6 11 15 10 10 4 3 1 3 1 2 3 2 0 2 1 2 7 5 4 3 3 1 8 5 1 0 0 2 5 4 4 7 4 7 9 7 5 3 1 1 2 4 4 3 2 3 3 4
14 13 11 10 7 7 7 10 12 12 9 9 13 13 13 5 0 7 4 11 10 16 16 18 11 14 14 12 11 16 7 5 11 8 10 9 7 11 12 10 11 13 8 8 5 2 12 3 1 2 2 1 0 1 0 3 0 7 0 6 2 1 3 4 3 1 0 3 3 5 6 3 0 6 3 0 4 4 4 5 6 5 4 3 4 4 4 4
15 10 7 9 7 9 8 10 13 8 6 9 13 15 5 5 2 3 7 14 11 12 12 11 6 11 14 12 11 16 9 12 13 8 6 14 3 12 9 8 11 12 9 1 5 2 8 5 1 2 1 3 0 0 3 1 2 2 6 2 6 1 2 1 2 2 1 2 2 2 5 3 7 5 0 0 2 5 5 5 4 4 5 5 4 3 4 4
10 10 9 9 8 9 8 11 11 9 8 10 12 13 5 1 2 6 12 14 10 14 13 7 9 8 10 11 10 10 13 11 12 8 9 8 5 10 15 9 9 12 7 6 3 3 2 6 1 2 2 1 0 2 8 3 2 0 2 2 2 1 0 4 5 2 5 3 1 5 3 3 5 5 7 6 6 6 5 3 3 4 5 5 5 5 5 4
13 8 5 8 8 10 10 11 8 7 8 16 15 7 7 4 1 9 12 17 7 10 6 10 7 10 9 7 13 12 12 9 12 7 4 4 3 4 12 9 6 13 9 2 2 4 2 3 5 1 2 2 2 4 7 10 8 1 2 4 0 0 1 2 2 3 3 2 4 2 3 4 4 5 6 8 6 4 7 5 4 4 3 3 5 6 5 4
7 5 7 8 10 11 12 9 10 14 14 10 6 4 6 3 3 2 3 3 5 5 4 8 10 11 10 12 12 7 6 7 10 9 6 6 10 2 4 6 9 11 6 3 5 2 2 2 8 3 3 5 1 2 0 2 6 7 10 11 14 10 5 4 5 0 1 3 3 4 7 1 1 2 3 4 4 4 4 7 5 4 4 4 4 4 5 5
10 10 8 11 12 15 15 14 10 11 7 10 8 6 4 9 6 4 4 1 5 3 3 4 8 6 8 8 11 11 8 8 8 8 6 6 8 1 3 4 11 11 10 7 7 2 3 4 9 4 2 2 1 1 0 0 1 1 2 5 5 5 5 4 5 6 1 2 2 1 1 8 5 0 3 4 3 3 1 2 6 4 5 5 4 3 2 3
4 5 7 13 12 15 14 12 9 9 5 4 6 5 4 2 5 4 5 2 3 0 2 3 9 8 6 6 10 9 14 7 13 12 7 5 4 5 5 8 11 12 8 3 5 3 10 4 7 3 3 1 1 2 1 0 0 1 4 3 6 9 11 8 3 4 6 1 1 0 3 5 2 1 1 1 2 1 0 1 1 4 4 4 4 3 4 3
5 9 9 1 10 2 11 15 16 13 7 5 6 3 3 2 6 6 5 5 4 3 3 2 7 5 6 5 8 11 14 5 7 7 4 5 3 5 3 8 17 7 10 8 10 7 5 2 9 6 3 1 2 1 2 1 1 4 4 7 4 4 3 1 3 1 2 6 7 6 7 7 5 0 1 1 0 1 1 1 0 2 4 5 5 4 3 4
9 6 7 6 5 2 13 6 12 13 12 11 10 9 5 3 2 3 7 6 3 3 4 1 3 6 3 3 6 5 11 8 3 6 2 5 1 2 1 11 12 8 2 7 8 8 4 6 9 8 10 9 7 7 12 14 12 2 2 3 6 7 11 6 5 3 4 3 7 3 5 10 2 0 1 1 1 1 2 2 3 1 2 5 5 5 4 4
8 12 3 6 4 3 4 2 2 11 12 10 10 7 8 4 1 5 4 3 1 4 2 4 3 7 5 7 6 7 9 5 3 5 5 3 1 1 3 4 7 2 2 10 11 9 3 4 7 9 12 13 14 6 4 11 6 7 11 7 7 6 6 7 3 4 7 5 8 7 10 14 6 2 2 4 4 6 7 4 5 5 3 1 4 5 5 5
2 11 12 13 5 8 4 2 2 7 14 15 11 9 12 10 5 1 5 3 3 3 2 3 5 8 5 10 7 8 10 6 3 7 6 7 1 1 5 6 6 8 4 8 12 5 3 4 8 11 11 10 5 2 5 11 9 13 12 8 6 8 5 7 9 11 11 5 7 6 9 10 16 6 6 6 6 5 5 6 5 5 5 5 5 5 5 5
5 2 5 7 12 21 17 12 11 11 10 16 7 10 13 12 8 7 1 2 3 3 6 1 5 8 14 14 10 6 7 4 5 6 5 2 5 1 3 5 4 5 3 4 3 3 5 8 6 7 9 7 4 1 9 7 10 10 13 12 11 10 8 9 10 14 7 9 14 17 16 16 19 12 9 9 9 9 9 10 10 9 5 4 5 5 5 5
3 3 2 0 3 8 8 5 14 10 15 18 6 13 14 16 16 11 6 3 4 3 5 6 10 9 12 10 9 6 12 7 5 4 5 5 6 5 3 3 0 2 1 3 1 0 2 4 3 5 6 5 3 4 6 7 5 6 10 13 13 11 12 15 16 15 13 10 16 18 13 17 17 9 7 8 8 9 7 5 4 5 7 7 6 5 6 6
1 4 4 2 4 9 13 12 8 6 11 17 10 13 12 17 17 11 5 9 7 7 3 6 10 10 10 11 10 9 11 13 12 8 1 10 3 2 5 5 5 1 1 3 3 2 4 3 9 3 4 5 5 6 5 5 6 5 5 7 9 11 12 15 15 17 15 14 14 14 9 11 12 7 6 5 8 4 5 7 11 10 8 8 7 5 5 6
1 2 2 8 6 6 11 9 9 11 9 12 11 9 10 14 16 14 7 6 16 12 11 15 10 9 8 11 10 11 11 12 10 16 16 16 13 9 9 3 10 8 4 3 2 1 4 3 2 5 4 4 4 7 6 3 2 3 5 6 10 13 14 14 15 14 9 10 12 11 11 14 19 3 0 3 4 8 10 11 9 6 5 6 7 7 7 7
0 1 1 2 4 4 11 9 8 9 11 11 12 12 10 16 12 13 5 2 3 5 10 9 10 10 7 10 14 12 5 5 6 10 15 9 6 10 3 8 16 15 9 7 2 6 6 5 6 5 7 6 3 8 5 5 3 2 8 13 17 17 14 12 13 11 11 12 12 11 18 20 8 6 6 5 5 7 6 5 4 4 6 8 9 9 8 6
Wind_Direction
198 197 189 188 189 188 187 187 187 184 182 179 176 175 177 180 177 176 173 175 167 170 171 176 171 157 143 135 130 130 135 132 149 184 198 206 172 222 258 282 284 311 343 258 264 249 283 281 262 225 249 108 219 241 160 174 136 71 213 238 243 247 185 174 199 132 132 125 148 159 172 142 134 148 88 155 119 51 107 133 79 68 61 87 97 107 117 126
194 201 190 187 189 188 186 185 185 183 185 183 177 178 177 176 177 175 173 171 166 168 172 169 171 169 147 139 131 137 125 130 220 227 223 166 199 122 304 293 276 229 123 289 266 276 278 284 251 197 253 242 145 238 131 201 142 166 234 200 253 258 310 131 69 79 150 143 153 154 186 168 158 151 165 148 170 176 145 195 139 106 98 82 102 118 124 135
193 195 189 186 186 186 184 183 184 183 184 185 182 179 179 175 175 174 170 170 163 167 169 167 165 160 140 135 137 137 118 63 290 243 238 225 187 192 225 254 262 188 174 263 290 283 278 296 319 330 207 265 180 218 162 198 176 227 254 250 242 306 59 43 70 60 73 131 143 146 181 234 135 141 124 196 176 176 199 184 174 158 146 148 140 141 142 150
194 195 188 185 186 184 182 180 181 181 183 186 185 180 175 173 172 170 168 164 160 160 164 165 163 158 151 139 136 138 115 77 240 260 229 220 203 198 217 235 231 206 218 265 267 283 311 291 281 280 290 234 226 213 172 188 157 193 191 211 273 204 98 13 69 58 51 124 134 148 141 145 148 119 152 201 199 186 215 202 180 184 158 153 159 152 156 159
193 197 187 185 184 182 180 179 180 180 181 186 185 178 171 169 171 168 159 161 157 156 156 158 161 158 150 139 140 145 121 203 240 201 230 191 193 195 218 234 211 194 202 239 274 269 263 283 277 270 263 274 243 184 239 185 205 356 225 80 346 353 66 58 52 25 36 66 125 122 144 172 105 110 184 185 209 197 205 210 181 183 152 150 162 158 159 168
194 194 185 182 184 181 178 179 180 179 179 183 184 176 168 165 167 161 155 156 155 154 151 148 150 157 151 148 150 163 170 198 180 177 193 172 184 202 217 226 194 184 184 237 254 274 236 227 246 255 237 234 244 204 193 227 137 242 254 262 34 357 94 24 53 342 340 89 118 139 172 100 137 179 198 204 223 126 33 51 74 51 153 159 155 151 165 169
191 194 186 181 181 182 177 176 179 180 178 179 180 175 165 163 165 158 159 155 153 153 148 149 146 146 150 150 165 193 208 251 52 268 330 179 176 199 213 209 162 172 185 172 220 254 216 234 192 224 241 256 269 239 216 159 173 229 268 110 41 44 66 31 68 335 13 58 84 82 123 119 153 213 177 220 142 103 72 58 44 80 112 127 144 163 168 176
188 189 182 184 182 180 177 176 178 179 179 180 175 172 162 161 160 158 157 154 150 151 148 148 144 148 146 154 138 209 220 242 152 60 279 132 191 190 195 158 162 181 175 176 179 222 243 230 207 199 238 234 209 230 168 169 168 215 243 99 105 79 97 80 90 42 36 53 320 53 103 142 165 229 78 230 187 133 111 96 86 104 124 137 146 165 173 178
192 184 181 181 182 179 176 176 176 177 178 176 169 166 157 156 156 155 156 149 148 153 150 148 153 154 166 148 172 167 221 208 70 125 151 138 137 147 132 147 164 175 168 174 202 227 246 231 229 204 204 219 268 292 194 195 215 217 252 88 113 88 101 126 91 84 54 77 3 72 181 68 64 268 250 232 221 144 127 104 113 121 142 148 160 168 171 178
185 187 178 176 178 176 176 176 173 174 173 171 168 162 159 154 154 151 152 152 149 152 155 152 153 163 179 166 178 205 223 113 135 153 149 133 127 132 165 149 170 174 153 191 194 222 230 238 220 208 263 308 221 255 318 220 269 285 133 102 100 122 109 332 108 115 127 95 195 138 185 75 25 56 272 211 198 133 133 134 142 139 167 168 162 173 176 177
185 182 178 177 174 175 173 171 171 169 170 168 166 161 163 153 152 152 152 153 152 153 155 157 155 166 175 203 175 208 323 123 154 151 141 136 140 148 176 169 183 175 157 176 209 210 227 250 286 32 37 257 198 223 240 226 316 69 115 95 86 104 84 131 92 123 148 101 215 299 101 85 70 60 237 53 135 149 147 155 162 166 160 179 176 172 179 183
182 179 177 175 173 170 169 168 165 166 166 165 162 162 161 156 150 149 150 151 150 157 158 158 165 170 202 206 206 189 227 120 152 145 140 151 156 170 164 170 183 182 165 170 215 223 232 284 320 196 215 165 234 48 222 197 311 137 152 118 144 131 138 169 158 166 240 89 198 279 85 296 141 226 223 191 166 161 160 173 171 184 184 171 187 174 176 184
178 178 176 175 169 166 167 165 163 162 163 161 161 162 157 154 150 146 143 146 153 157 161 159 158 205 192 199 218 92 254 143 139 146 152 133 105 87 122 165 173 159 177 176 198 213 227 255 322 283 253 278 197 184 306 209 158 149 244 185 131 162 231 187 90 115 154 99 199 126 255 233 216 227 207 156 154 160 170 200 183 179 192 194 181 177 175 185
180 174 174 170 165 162 162 162 160 158 158 161 159 157 151 149 146 144 144 148 154 157 158 156 165 189 234 220 126 180 123 135 139 149 151 147 122 116 108 136 138 115 103 112 141 323 183 190 331 291 302 308 264 324 137 36 171 166 201 252 186 133 225 153 152 145 168 256 155 228 200 272 272 229 154 156 149 159 183 206 194 186 186 195 193 175 177 188
177 170 165 166 163 160 159 160 158 155 155 157 157 147 141 141 137 138 143 143 155 154 155 148 190 171 204 195 76 128 348 133 159 165 160 155 126 124 155 162 156 140 116 118 90 252 138 110 107 275 256 160 98 159 142 167 194 223 133 242 255 163 51 146 100 162 165 239 222 172 271 252 276 100 106 131 164 174 193 193 200 194 195 188 188 180 178 190
166 173 162 162 162 159 158 157 156 153 150 145 147 137 128 129 129 127 138 145 151 148 143 153 188 239 205 195 162 127 177 175 186 153 198 159 147 147 155 143 122 119 121 67 105 108 227 159 204 217 242 8 207 224 163 117 200 238 170 151 201 203 164 188 270 200 25 135 222 207 225 258 138 159 121 117 193 172 226 217 196 197 194 190 183 185 191 192
167 165 164 158 158 156 156 157 154 150 142 139 137 130 125 119 123 132 150 139 141 139 160 157 175 208 203 32 117 183 174 120 104 128 145 345 175 134 137 128 137 134 108 88 122 145 187 188 52 4 248 214 197 225 163 191 158 222 190 219 193 202 141 206 44 276 180 188 191 238 239 246 186 192 172 191 183 184 221 242 229 201 196 191 182 184 192 196
168 162 160 157 154 153 153 153 147 141 139 140 132 129 121 121 128 129 125 127 128 159 212 179 188 163 270 119 191 193 140 120 178 132 133 123 195 148 151 155 128 129 133 120 138 185 168 175 141 205 173 221 201 224 186 197 169 170 164 244 265 196 192 167 167 199 150 235 212 191 234 261 256 177 196 195 203 185 207 216 237 224 197 196 191 194 198 195
161 160 154 153 150 149 149 149 143 140 141 133 125 117 122 126 125 106 132 153 153 140 178 178 180 189 216 182 181 143 145 136 118 130 136 154 158 158 185 111 140 135 149 161 183 191 169 119 131 230 198 200 207 217 205 185 171 177 175 190 186 185 223 183 49 121 164 164 224 203 208 232 248 254 199 189 194 191 199 212 224 232 220 205 204 207 207 210
160 157 154 151 147 147 148 143 138 142 139 131 130 130 128 138 140 134 178 209 220 176 359 176 180 220 67 144 164 103 109 136 117 175 143 171 152 174 167 148 142 161 153 178 156 205 157 158 191 205 197 194 216 223 223 253 297 193 167 188 204 177 203 75 107 119 352 154 216 222 238 249 247 228 231 182 197 201 200 196 207 222 216 210 210 210 214 212
157 154 154 147 145 146 146 141 141 144 141 143 149 154 160 162 147 167 183 202 218 220 28 165 183 213 115 136 124 134 134 160 126 145 163 162 164 153 168 158 155 179 180 153 150 120 162 195 206 199 210 188 212 225 227 335 303 348 177 182 202 165 165 21 141 207 260 131 239 215 240 249 252 257 253 242 169 204 199 201 207 208 211 211 210 219 218 220
156 155 150 146 145 148 145 142 143 146 146 156 167 182 155 168 343 186 139 140 221 240 260 164 191 131 85 109 162 145 131 138 150 153 134 168 175 178 170 180 168 173 176 149 121 141 194 206 194 202 216 214 207 225 121 172 339 309 27 158 167 180 95 101 68 102 168 81 276 303 235 244 246 248 245 236 243 220 196 197 203 200 209 212 210 213 218 209
152 153 147 145 147 147 143 142 145 146 151 169 192 217 158 195 194 129 123 120 110 320 257 157 187 157 128 139 176 187 148 162 157 165 166 178 170 210 161 179 182 164 174 159 155 152 185 226 227 187 180 177 189 182 153 108 24 36 271 43 195 155 135 239 282 138 208 175 301 32 330 284 284 270 256 241 229 233 222 207 206 197 206 208 208 203 205 207
151 150 147 146 146 145 142 142 143 148 176 187 194 204 87 273 160 148 128 151 148 203 226 164 179 134 151 155 168 209 160 157 145 167 163 171 171 145 166 184 171 156 182 166 174 171 173 165 7 311 163 163 156 151 166 167 234 243 281 317 112 148 76 111 176 163 120 330 102 332 317 284 239 248 249 239 229 232 223 215 220 219 209 205 209 212 200 201
151 149 147 146 145 145 142 139 152 171 156 182 228 232 281 33 315 170 123 93 86 20 281 6 339 171 147 355 137 184 159 139 176 152 163 177 167 150 189 171 174 175 177 176 168 170 190 240 308 153 177 162 148 168 186 150 216 212 226 151 347 159 106 90 124 127 131 267 221 158 337 296 229 217 230 238 209 224 221 207 217 217 214 196 203 215 220 221
149 148 146 147 146 144 140 145 170 157 161 198 207 225 223 160 352 52 131 108 156 150 55 183 158 165 135 155 147 199 157 161 133 162 158 202 321 176 153 195 178 175 177 174 178 160 150 228 153 162 144 129 140 172 208 147 182 156 239 169 156 86 112 125 149 160 154 196 265 90 167 263 340 340 251 215 183 213 224 202 225 220 219 211 220 220 216 213
149 148 148 150 148 144 149 174 149 148 174 218 224 202 183 111 31 25 147 51 175 174 157 346 174 205 48 160 169 176 173 178 33 118 166 127 188 1 179 161 88 176 164 141 114 228 124 81 63 144 124 139 131 187 206 165 149 227 263 351 128 109 116 156 151 161 224 123 24 357 156 229 298 279 311 41 153 208 226 225 226 225 220 215 216 218 219 223
150 150 151 154 153 157 92 133 153 173 183 189 185 179 98 115 78 20 43 131 222 131 186 203 202 326 10 159 202 193 50 122 129 209 159 125 42 97 210 172 167 160 151 136 183 63 142 145 186 140 143 142 185 187 173 161 165 200 250 324 101 126 144 144 142 158 168 73 302 243 274 328 246 265 217 188 248 247 237 233 229 221 214 208 191 185 181 157
152 152 153 156 153 137 111 148 167 169 172 97 154 133 105 92 98 189 140 168 114 122 61 125 285 139 131 157 193 198 119 167 155 126 87 124 310 160 193 172 145 117 52 155 160 174 333 165 179 149 149 185 123 158 338 176 158 250 221 60 78 64 62 121 181 126 13 120 258 217 197 204 279 249 248 229 217 242 236 234 245 221 178 149 127 122 124 112
153 153 154 153 149 138 129 138 167 166 110 99 121 115 114 108 126 193 147 231 143 167 185 123 189 163 163 162 185 186 160 127 44 130 142 162 183 275 290 229 143 122 94 52 72 48 158 117 196 82 179 117 127 39 72 55 105 129 131 87 56 58 65 11 53 94 69 296 241 190 191 140 298 261 195 171 217 210 238 248 72 68 80 90 116 133 135 153
154 154 155 158 162 155 130 154 172 179 143 136 120 124 137 191 187 141 177 182 122 69 77 152 146 150 163 167 175 177 180 119 143 145 159 184 165 225 177 107 113 72 71 51 62 126 82 44 58 317 318 168 124 78 10 69 116 125 121 127 89 4 26 38 354 42 131 271 227 317 327 69 189 290 268 191 256 10 105 141 140 124 145 140 145 150 150 155
153 155 157 164 133 126 155 162 174 145 133 148 143 149 172 155 301 199 163 131 175 192 174 165 162 164 175 172 158 168 156 124 159 163 163 175 166 179 193 166 159 115 148 161 129 127 63 118 118 23 291 178 160 93 5 22 358 81 116 114 111 166 69 337 80 344 213 211 241 351 338 352 248 232 289 267 291 185 193 158 151 141 141 158 148 145 167 172
153 154 156 152 133 133 105 132 142 142 120 173 164 173 169 160 179 193 143 169 222 152 197 166 160 166 164 161 169 167 142 158 164 174 155 161 166 195 208 172 180 166 164 159 100 114 49 125 154 77 35 247 196 133 143 76 261 187 150 148 125 128 147 199 212 191 241 320 285 309 277 271 261 281 230 250 258 225 173 97 132 141 149 145 153 156 169 211
151 151 155 149 135 118 119 143 152 139 154 175 187 166 142 172 195 189 145 190 127 163 137 163 148 150 162 178 163 166 154 156 166 165 162 166 178 180 211 210 183 191 126 155 163 173 145 288 229 153 207 159 196 181 175 158 162 206 134 148 173 149 155 189 168 186 204 175 293 278 73 232 122 254 284 231 233 165 164 139 141 161 170 168 193 246 241 242
149 149 124 128 126 69 144 149 151 156 162 166 171 175 164 187 185 176 163 185 138 152 152 149 151 155 173 169 146 166 178 139 188 154 176 170 188 187 190 194 187 191 126 145 221 135 192 133 315 336 256 165 169 262 101 117 115 195 177 76 100 224 137 147 171 122 136 125 57 315 204 211 186 238 251 240 180 135 130 83 347 284 261 210 202 231 230 198
145 143 139 158 158 142 156 149 151 164 178 172 156 176 195 190 170 173 179 122 144 151 147 144 152 161 162 166 148 169 336 132 182 163 187 196 190 190 189 189 182 193 170 168 146 122 118 216 326 335 43 77 131 329 321 140 162 218 104 194 194 97 97 103 38 326 70 51 259 168 302 296 270 306 270 249 205 198 82 206 219 241 223 187 209 230 208 143
150 136 161 166 168 139 152 153 154 171 198 185 164 181 200 177 346 148 128 151 149 139 145 151 178 164 172 177 171 176 169 135 178 174 184 177 201 203 188 201 185 190 202 146 176 225 159 136 320 38 151 332 98 335 4 64 190 98 153 216 155 170 121 129 207 54 272 190 259 143 211 283 339 292 299 292 155 194 201 214 223 200 181 200 227 218 164 148
146 152 128 174 146 137 147 153 152 178 201 187 186 196 155 160 279 134 133 119 132 147 152 165 158 181 174 167 172 170 162 171 177 184 182 176 244 183 188 188 181 196 186 86 141 215 109 83 352 3 13 302 262 82 56 342 70 120 184 195 132 191 263 263 140 216 193 216 258 244 211 240 184 233 338 328 234 214 208 193 161 179 186 208 222 180 120 114
129 143 156 182 127 142 147 151 164 169 186 186 199 198 156 85 139 139 150 135 143 154 166 179 146 198 164 172 159 164 165 183 162 192 158 192 216 183 193 171 183 186 174 140 117 170 88 124 296 341 15 203 22 152 181 238 304 309 94 57 11 100 163 134 188 188 118 222 174 294 161 242 208 214 208 222 206 182 184 179 207 200 201 206 183 152 143 131
148 148 156 133 136 136 148 152 162 183 191 195 191 195 155 135 266 142 150 139 157 162 185 161 180 155 170 170 160 168 179 176 164 184 205 157 203 175 187 174 172 180 158 146 110 144 81 104 140 247 323 122 174 209 201 165 157 216 104 155 183 107 236 109 297 166 163 187 188 234 298 274 253 210 195 222 222 145 152 161 170 158 155 138 147 148 146 132
168 127 123 136 140 144 144 151 171 188 196 205 178 149 154 149 147 72 80 129 127 350 156 170 163 178 166 149 171 155 157 164 168 184 192 157 180 152 276 187 144 170 136 91 72 170 85 72 132 139 131 217 240 17 89 186 200 186 169 180 180 151 125 151 259 84 141 152 224 198 242 282 270 298 165 157 165 150 150 157 169 160 145 134 133 134 140 135
166 142 158 153 151 164 154 159 199 193 191 182 180 167 165 127 141 157 120 341 117 131 322 146 168 158 153 166 164 161 160 176 170 180 204 166 194 299 205 150 152 155 160 175 166 295 141 90 106 146 212 159 355 310 358 31 105 225 193 217 177 181 147 141 179 226 89 251 89 141 337 269 248 323 43 128 144 150 186 150 163 168 152 145 146 137 109 122
124 81 83 138 169 176 162 178 186 183 182 155 87 53 115 127 129 163 135 180 118 236 119 161 168 157 184 159 157 160 166 180 172 194 179 176 164 187 208 157 140 148 124 123 79 214 77 105 87 60 37 351 271 216 199 31 3 290 280 259 168 192 194 189 166 166 157 169 204 256 225 253 272 222 84 56 68 42 54 321 203 147 121 120 126 121 128 109
105 114 116 174 179 272 182 178 180 189 182 145 151 107 294 137 142 154 161 171 142 172 140 120 149 170 160 156 150 169 172 160 202 177 169 167 178 332 244 151 148 152 160 190 170 199 140 210 112 123 85 32 340 10 324 265 204 225 212 206 208 193 150 100 105 62 130 207 170 146 239 263 269 82 109 87 159 145 275 241 227 157 125 124 124 121 120 136
109 47 57 128 218 273 196 195 190 178 166 164 147 158 146 91 19 160 151 163 119 156 115 124 141 129 100 111 141 151 184 181 128 202 93 160 88 320 289 151 159 167 154 163 152 157 143 165 137 155 161 171 185 196 206 210 208 188 340 144 190 165 167 141 201 188 179 254 155 165 251 250 222 34 157 273 162 223 263 207 205 215 146 131 130 144 161 150
156 127 133 107 240 306 322 47 328 174 163 161 160 168 145 116 41 343 146 126 346 127 63 122 79 103 125 132 136 165 186 204 119 181 146 125 88 331 355 350 165 150 167 155 140 145 155 168 178 182 190 200 206 196 49 83 74 179 216 188 192 201 183 182 109 125 195 208 191 216 220 256 252 236 181 217 198 194 208 205 201 217 237 143 124 142 153 149
71 135 155 152 119 256 217 257 217 186 187 168 177 161 172 158 131 102 344 149 250 127 121 123 154 140 181 150 163 173 182 159 68 131 169 127 47 141 21 40 58 26 98 124 152 112 120 190 205 198 213 216 194 136 168 138 168 203 201 205 199 188 192 169 174 209 199 167 248 235 234 246 253 217 198 210 218 231 224 202 201 218 218 179 161 143 139 106
128 297 146 183 166 181 191 218 210 197 182 175 174 155 171 147 158 155 49 333 143 218 119 345 179 176 167 171 152 162 167 160 138 163 149 81 109 60 63 3 50 332 321 142 172 118 146 193 214 188 231 232 229 130 158 161 175 187 199 198 195 191 184 187 216 225 184 186 218 225 213 227 244 227 195 196 189 202 204 204 201 191 173 148 138 145 149 140
48 97 113 271 165 201 201 148 164 184 175 177 162 169 171 167 176 170 156 138 159 220 184 157 193 187 178 168 155 159 163 147 218 174 149 155 143 130 83 23 6 27 351 123 68 265 111 222 199 176 224 238 227 154 169 160 184 179 192 198 197 190 197 204 218 223 210 213 227 236 224 227 240 238 198 208 191 194 206 183 142 155 177 169 162 162 161 152
123 134 157 354 359 148 141 122 151 166 181 179 180 187 180 182 179 158 157 154 164 206 195 202 181 183 172 177 172 176 185 191 170 149 108 118 124 133 174 174 160 40 17 136 151 292 126 242 157 145 200 244 220 195 192 169 150 200 205 194 187 192 203 211 219 227 225 237 243 251 263 269 261 228 213 202 194 156 113 153 180 191 177 170 165 164 168 160
48 340 337 135 106 149 147 146 156 171 168 180 198 178 189 183 189 169 178 191 179 175 180 196 163 174 177 184 194 201 189 191 158 165 162 148 168 198 147 224 144 152 175 131 136 211 135 265 130 135 175 256 206 200 214 177 160 172 209 188 188 188 203 211 217 221 207 222 242 260 268 255 252 199 296 232 163 157 177 186 185 183 169 160 171 183 181 176
302 318 42 50 92 158 150 147 157 149 199 190 187 175 187 182 175 158 149 228 212 181 181 164 153 159 182 190 206 209 177 166 162 171 168 167 152 161 136 154 157 157 172 166 130 151 174 157 154 150 181 227 244 187 158 102 84 270 228 207 201 203 202 210 222 221 209 204 222 224 235 239 242 107 211 237 174 206 199 181 145 150 180 180 185 190 187 167